| time (UTC) | temp C | wind direction | speed KPH | gust KPH | rain 1hr cm | rain 24hr cm | rain mn cm | humidity % | barometer mb |
| 20260507171912 | 10 | 286 | 9.7 | 16.1 | 0.00 | 0.00 | 0.00 | 43 | 1013.1 |
| 20260507171409 | 10 | 268 | 14.5 | 16.1 | 0.00 | 0.00 | 0.00 | 41 | 1013.1 |
| 20260507170906 | 10 | 289 | 9.7 | 12.9 | 0.00 | 0.00 | 0.00 | 45 | 1013.2 |
| 20260507170402 | 10 | 226 | 11.3 | 22.5 | 0.00 | 0.00 | 0.00 | 46 | 1013.3 |
| 20260507165859 | 10 | 287 | 17.7 | 22.5 | 0.00 | 0.00 | 0.00 | 44 | 1013.4 |
| 20260507165355 | 10 | 272 | 9.7 | 20.9 | 0.00 | 0.00 | 0.00 | 46 | 1013.2 |
| 20260507164851 | 10 | 275 | 20.9 | 24.1 | 0.00 | 0.00 | 0.00 | 44 | 1013.4 |
| 20260507164348 | 10 | 290 | 8.0 | 20.9 | 0.00 | 0.00 | 0.00 | 44 | 1013.3 |
| 20260507163845 | 10 | 277 | 19.3 | 24.1 | 0.00 | 0.00 | 0.00 | 45 | 1013.3 |
| 20260507163342 | 10 | 264 | 17.7 | 25.7 | 0.00 | 0.00 | 0.00 | 45 | 1013.1 |
| 20260507162839 | 10 | 255 | 14.5 | 22.5 | 0.00 | 0.00 | 0.00 | 44 | 1013.2 |
| 20260507162334 | 10 | 269 | 12.9 | 24.1 | 0.00 | 0.00 | 0.00 | 46 | 1013.4 |
| 20260507161832 | 10 | 277 | 16.1 | 24.1 | 0.00 | 0.00 | 0.00 | 46 | 1013.2 |
| 20260507161328 | 9 | 290 | 14.5 | 25.7 | 0.00 | 0.00 | 0.00 | 45 | 1013.2 |
| 20260507160825 | 10 | 261 | 16.1 | 17.7 | 0.00 | 0.00 | 0.00 | 44 | 1013.5 |
| 20260507160321 | 9 | 272 | 9.7 | 11.3 | 0.00 | 0.00 | 0.00 | 47 | 1013.3 |
| 20260507155817 | 9 | 263 | 11.3 | 17.7 | 0.00 | 0.00 | 0.00 | 47 | 1013.4 |
| 20260507155313 | 9 | 268 | 17.7 | 17.7 | 0.00 | 0.00 | 0.00 | 46 | 1013.4 |
| 20260507154810 | 9 | 284 | 17.7 | 20.9 | 0.00 | 0.00 | 0.00 | 47 | 1013.4 |
| 20260507154307 | 9 | 264 | 14.5 | 24.1 | 0.00 | 0.00 | 0.00 | 47 | 1013.3 |
| 20260507153804 | 9 | 264 | 12.9 | 17.7 | 0.00 | 0.00 | 0.00 | 47 | 1013.1 |
| 20260507153300 | 9 | 259 | 14.5 | 22.5 | 0.00 | 0.00 | 0.00 | 47 | 1013.2 |
| 20260507152757 | 9 | 276 | 9.7 | 20.9 | 0.00 | 0.00 | 0.00 | 46 | 1013.2 |
| 20260507152253 | 9 | 299 | 14.5 | 24.1 | 0.00 | 0.00 | 0.00 | 46 | 1013.2 |
| 20260507151749 | 9 | 273 | 11.3 | 17.7 | 0.00 | 0.00 | 0.00 | 49 | 1013.3 |
| 20260507151245 | 10 | 284 | 16.1 | 22.5 | 0.00 | 0.00 | 0.00 | 47 | 1013.2 |
| 20260507150743 | 10 | 272 | 12.9 | 16.1 | 0.00 | 0.00 | 0.00 | 48 | 1013.1 |
| 20260507150239 | 9 | 261 | 11.3 | 22.5 | 0.00 | 0.00 | 0.00 | 49 | 1013.2 |
| 20260507145736 | 10 | 312 | 6.4 | 20.9 | 0.00 | 0.00 | 0.00 | 50 | 1013.0 |
| 20260507145232 | 9 | 173 | 12.9 | 16.1 | 0.00 | 0.00 | 0.00 | 49 | 1013.1 |
| 20260507144729 | 9 | 268 | 8.0 | 20.9 | 0.00 | 0.00 | 0.00 | 51 | 1013.2 |
| 20260507144227 | 9 | 275 | 12.9 | 17.7 | 0.00 | 0.00 | 0.00 | 50 | 1013.2 |
| 20260507143723 | 10 | 267 | 12.9 | 22.5 | 0.00 | 0.00 | 0.00 | 48 | 1013.1 |
| 20260507143220 | 9 | 265 | 11.3 | 12.9 | 0.00 | 0.00 | 0.00 | 51 | 1013.2 |
| 20260507142716 | 9 | 276 | 14.5 | 14.5 | 0.00 | 0.00 | 0.00 | 49 | 1013.2 |
| 20260507142213 | 9 | 270 | 11.3 | 17.7 | 0.00 | 0.00 | 0.00 | 49 | 1013.2 |
| 20260507141709 | 9 | 277 | 6.4 | 9.7 | 0.00 | 0.00 | 0.00 | 49 | 1013.0 |
| 20260507141206 | 9 | 287 | 12.9 | 14.5 | 0.00 | 0.00 | 0.00 | 48 | 1013.0 |
| 20260507140702 | 9 | 301 | 9.7 | 11.3 | 0.00 | 0.00 | 0.00 | 48 | 1013.1 |
| 20260507140200 | 10 | 275 | 8.0 | 12.9 | 0.00 | 0.00 | 0.00 | 47 | 1013.2 |
| 20260507135657 | 9 | 307 | 3.2 | 4.8 | 0.00 | 0.00 | 0.00 | 51 | 1013.2 |
| 20260507135154 | 9 | 336 | 0.0 | 6.4 | 0.00 | 0.00 | 0.00 | 49 | 1013.2 |
| 20260507134650 | 9 | 88 | 1.6 | 6.4 | 0.00 | 0.00 | 0.00 | 48 | 1013.0 |
| 20260507134147 | 9 | 268 | 3.2 | 3.2 | 0.00 | 0.00 | 0.00 | 49 | 1013.3 |
| 20260507133643 | 8 | 146 | 1.6 | 4.8 | 0.00 | 0.00 | 0.00 | 50 | 1013.4 |
| 20260507133140 | 8 | 251 | 6.4 | 6.4 | 0.00 | 0.00 | 0.00 | 51 | 1013.3 |
| 20260507132637 | 8 | 314 | 1.6 | 3.2 | 0.00 | 0.00 | 0.00 | 51 | 1013.3 |
| 20260507132133 | 8 | 264 | 4.8 | 4.8 | 0.00 | 0.00 | 0.00 | 51 | 1013.2 |
| 20260507131630 | 8 | 264 | 3.2 | 4.8 | 0.00 | 0.00 | 0.00 | 53 | 1013.4 |
| 20260507131128 | 8 | 266 | 1.6 | 4.8 | 0.00 | 0.00 | 0.00 | 55 | 1013.4 |
| 20260507130624 | 8 | 296 | 4.8 | 4.8 | 0.00 | 0.00 | 0.00 | 53 | 1013.3 |
| 20260507130122 | 7 | 286 | 1.6 | 4.8 | 0.00 | 0.00 | 0.00 | 56 | 1013.4 |
| 20260507125621 | 7 | 310 | 3.2 | 6.4 | 0.00 | 0.00 | 0.00 | 56 | 1013.5 |
| 20260507125118 | 7 | 279 | 3.2 | 4.8 | 0.00 | 0.00 | 0.00 | 58 | 1013.3 |
| 20260507124614 | 7 | 269 | 4.8 | 4.8 | 0.00 | 0.00 | 0.00 | 59 | 1013.3 |
| 20260507124112 | 7 | 306 | 3.2 | 4.8 | 0.00 | 0.00 | 0.00 | 60 | 1013.1 |
| 20260507123610 | 7 | 293 | 4.8 | 9.7 | 0.00 | 0.00 | 0.00 | 59 | 1013.1 |
| 20260507123107 | 6 | 288 | 4.8 | 4.8 | 0.00 | 0.00 | 0.00 | 62 | 1013.2 |
| 20260507122602 | 6 | 307 | 3.2 | 6.4 | 0.00 | 0.00 | 0.00 | 61 | 1013.2 |
| 20260507122058 | 6 | 287 | 6.4 | 6.4 | 0.00 | 0.00 | 0.00 | 62 | 1013.2 |
| 20260507121554 | 6 | 295 | 4.8 | 6.4 | 0.00 | 0.00 | 0.00 | 64 | 1013.3 |
| 20260507121050 | 6 | 297 | 3.2 | 3.2 | 0.00 | 0.00 | 0.00 | 65 | 1013.3 |
| 20260507120546 | 6 | 281 | 1.6 | 4.8 | 0.00 | 0.00 | 0.00 | 67 | 1013.3 |
| 20260507120043 | 5 | 314 | 1.6 | 1.6 | 0.00 | 0.00 | 0.00 | 69 | 1013.4 |
| 20260507115540 | 5 | 311 | 1.6 | 3.2 | 0.00 | 0.00 | 0.00 | 69 | 1013.4 |
| 20260507115035 | 5 | 305 | 3.2 | 3.2 | 0.00 | 0.00 | 0.00 | 70 | 1013.3 |
| 20260507114531 | 5 | 329 | 1.6 | 1.6 | 0.00 | 0.00 | 0.00 | 72 | 1013.3 |
| 20260507114029 | 5 | 322 | 0.0 | 1.6 | 0.00 | 0.00 | 0.00 | 72 | 1013.3 |
| 20260507113526 | 5 | 342 | 0.0 | 0.0 | 0.00 | 0.00 | 0.00 | 73 | 1013.1 |
| 20260507113023 | 4 | 342 | 0.0 | 1.6 | 0.00 | 0.00 | 0.00 | 75 | 1013.1 |
| 20260507112521 | 3 | 342 | 0.0 | 0.0 | 0.00 | 0.00 | 0.00 | 79 | 1013.2 |
| 20260507112017 | 3 | 340 | 0.0 | 0.0 | 0.00 | 0.00 | 0.00 | 80 | 1013.2 |
| 20260507111515 | 3 | 327 | 1.6 | 1.6 | 0.00 | 0.00 | 0.00 | 82 | 1013.0 |
| 20260507111010 | 3 | 334 | 0.0 | 1.6 | 0.00 | 0.00 | 0.00 | 84 | 1013.1 |
| 20260507110508 | 2 | 334 | 0.0 | 0.0 | 0.00 | 0.00 | 0.00 | 86 | 1012.9 |
| 20260507110004 | 2 | 338 | 1.6 | 1.6 | 0.00 | 0.00 | 0.00 | 87 | 1013.1 |
| 20260507105501 | 2 | 340 | 0.0 | 0.0 | 0.00 | 0.00 | 0.00 | 87 | 1013.1 |
| 20260507104957 | 2 | 6 | 0.0 | 0.0 | 0.00 | 0.00 | 0.00 | 87 | 1012.6 |
| 20260507104454 | 2 | 6 | 0.0 | 0.0 | 0.00 | 0.00 | 0.00 | 87 | 1012.8 |
| 20260507103950 | 2 | 6 | 0.0 | 0.0 | 0.00 | 0.00 | 0.00 | 86 | 1012.7 |
| 20260507103447 | 2 | 6 | 0.0 | 0.0 | 0.00 | 0.00 | 0.00 | 86 | 1012.7 |
| 20260507102943 | 2 | 6 | 0.0 | 0.0 | 0.00 | 0.00 | 0.00 | 86 | 1012.6 |
| 20260507102440 | 3 | 6 | 0.0 | 0.0 | 0.00 | 0.00 | 0.00 | 84 | 1012.7 |
| 20260507101937 | 3 | 6 | 0.0 | 0.0 | 0.00 | 0.00 | 0.00 | 83 | 1012.5 |
| 20260507101432 | 3 | 6 | 0.0 | 0.0 | 0.00 | 0.00 | 0.00 | 84 | 1012.6 |
| 20260507100928 | 3 | 6 | 0.0 | 0.0 | 0.00 | 0.00 | 0.00 | 83 | 1012.4 |
| 20260507100426 | 3 | 6 | 0.0 | 0.0 | 0.00 | 0.00 | 0.00 | 81 | 1012.4 |
| 20260507095924 | 3 | 6 | 0.0 | 0.0 | 0.00 | 0.00 | 0.00 | 81 | 1012.5 |
| 20260507095421 | 3 | 6 | 0.0 | 0.0 | 0.00 | 0.00 | 0.00 | 78 | 1012.6 |
| 20260507094918 | 3 | 6 | 0.0 | 0.0 | 0.00 | 0.00 | 0.00 | 77 | 1012.7 |
| 20260507094414 | 3 | 5 | 0.0 | 0.0 | 0.00 | 0.00 | 0.00 | 77 | 1012.7 |
| 20260507093911 | 3 | 301 | 0.0 | 0.0 | 0.00 | 0.00 | 0.00 | 79 | 1012.5 |
| 20260507093409 | 3 | 301 | 0.0 | 0.0 | 0.00 | 0.00 | 0.00 | 79 | 1012.5 |
| 20260507092908 | 4 | 301 | 0.0 | 0.0 | 0.00 | 0.00 | 0.00 | 78 | 1012.6 |
| 20260507092403 | 4 | 301 | 0.0 | 0.0 | 0.00 | 0.00 | 0.00 | 77 | 1012.8 |
| 20260507091900 | 4 | 301 | 0.0 | 0.0 | 0.00 | 0.00 | 0.00 | 74 | 1012.9 |
| 20260507091356 | 5 | 301 | 0.0 | 0.0 | 0.00 | 0.00 | 0.00 | 74 | 1012.8 |
| 20260507090852 | 5 | 301 | 0.0 | 0.0 | 0.00 | 0.00 | 0.00 | 72 | 1012.7 |
| 20260507090348 | 5 | 301 | 0.0 | 0.0 | 0.00 | 0.00 | 0.00 | 70 | 1013.0 |
| 20260507085846 | 5 | 301 | 0.0 | 0.0 | 0.00 | 0.00 | 0.00 | 67 | 1012.8 |
| 20260507085342 | 5 | 301 | 0.0 | 0.0 | 0.00 | 0.00 | 0.00 | 66 | 1013.1 |
| 20260507084840 | 5 | 300 | 1.6 | 1.6 | 0.00 | 0.00 | 0.00 | 65 | 1012.9 |
| 20260507084336 | 6 | 301 | 0.0 | 1.6 | 0.00 | 0.00 | 0.00 | 65 | 1012.9 |
| 20260507083834 | 6 | 296 | 1.6 | 1.6 | 0.00 | 0.00 | 0.00 | 65 | 1013.0 |
| 20260507083330 | 6 | 296 | 1.6 | 3.2 | 0.00 | 0.00 | 0.00 | 64 | 1013.0 |
| 20260507082826 | 6 | 294 | 1.6 | 3.2 | 0.00 | 0.00 | 0.00 | 64 | 1013.1 |
| 20260507082321 | 6 | 293 | 1.6 | 3.2 | 0.00 | 0.00 | 0.00 | 64 | 1013.0 |
| 20260507081819 | 6 | 291 | 1.6 | 3.2 | 0.00 | 0.00 | 0.00 | 64 | 1012.9 |
| 20260507081315 | 6 | 289 | 3.2 | 3.2 | 0.00 | 0.00 | 0.00 | 66 | 1013.0 |
| 20260507080812 | 6 | 300 | 1.6 | 1.6 | 0.00 | 0.00 | 0.00 | 64 | 1013.0 |
| 20260507080308 | 6 | 297 | 1.6 | 3.2 | 0.00 | 0.00 | 0.00 | 64 | 1013.0 |
| 20260507075803 | 6 | 301 | 0.0 | 0.0 | 0.00 | 0.00 | 0.00 | 64 | 1012.8 |
| 20260507075259 | 6 | 300 | 1.6 | 1.6 | 0.00 | 0.00 | 0.00 | 64 | 1012.7 |
| 20260507074756 | 6 | 300 | 1.6 | 3.2 | 0.00 | 0.00 | 0.00 | 64 | 1012.8 |
| 20260507074255 | 6 | 300 | 1.6 | 3.2 | 0.00 | 0.00 | 0.00 | 65 | 1013.0 |
| 20260507073751 | 6 | 301 | 1.6 | 3.2 | 0.00 | 0.00 | 0.00 | 65 | 1012.9 |
| 20260507073247 | 6 | 294 | 1.6 | 3.2 | 0.00 | 0.00 | 0.00 | 65 | 1012.9 |
| 20260507072745 | 6 | 296 | 1.6 | 3.2 | 0.00 | 0.00 | 0.00 | 65 | 1012.9 |
| 20260507072242 | 6 | 292 | 1.6 | 3.2 | 0.00 | 0.00 | 0.00 | 63 | 1012.9 |
| 20260507071740 | 6 | 288 | 3.2 | 4.8 | 0.00 | 0.00 | 0.00 | 62 | 1012.8 |
| 20260507071236 | 6 | 297 | 3.2 | 3.2 | 0.00 | 0.00 | 0.00 | 61 | 1012.8 |
| 20260507070733 | 6 | 295 | 1.6 | 3.2 | 0.00 | 0.00 | 0.00 | 62 | 1012.9 |
| 20260507070230 | 6 | 285 | 3.2 | 3.2 | 0.00 | 0.00 | 0.00 | 60 | 1012.8 |
| 20260507065726 | 6 | 291 | 1.6 | 3.2 | 0.00 | 0.00 | 0.00 | 60 | 1013.0 |
| 20260507065223 | 6 | 285 | 3.2 | 3.2 | 0.00 | 0.00 | 0.00 | 61 | 1013.1 |
| 20260507064721 | 6 | 291 | 1.6 | 3.2 | 0.00 | 0.00 | 0.00 | 62 | 1013.1 |
| 20260507064220 | 6 | 291 | 1.6 | 3.2 | 0.00 | 0.00 | 0.00 | 61 | 1013.2 |
| 20260507063716 | 6 | 288 | 1.6 | 3.2 | 0.00 | 0.00 | 0.00 | 62 | 1013.1 |
| 20260507063213 | 6 | 285 | 3.2 | 3.2 | 0.00 | 0.00 | 0.00 | 62 | 1013.2 |
| 20260507062710 | 6 | 280 | 3.2 | 3.2 | 0.00 | 0.00 | 0.00 | 61 | 1013.0 |
| 20260507062208 | 6 | 291 | 3.2 | 3.2 | 0.00 | 0.00 | 0.00 | 62 | 1012.9 |
| 20260507061705 | 7 | 297 | 1.6 | 1.6 | 0.00 | 0.00 | 0.00 | 63 | 1013.2 |
| 20260507061203 | 7 | 293 | 1.6 | 3.2 | 0.00 | 0.00 | 0.00 | 63 | 1013.1 |
| 20260507060701 | 7 | 303 | 1.6 | 3.2 | 0.00 | 0.00 | 0.00 | 62 | 1013.1 |
| 20260507060157 | 7 | 304 | 1.6 | 3.2 | 0.00 | 0.00 | 0.00 | 57 | 1012.9 |
| 20260507055653 | 7 | 303 | 1.6 | 1.6 | 0.00 | 0.00 | 0.00 | 55 | 1013.0 |
| 20260507055149 | 7 | 299 | 1.6 | 3.2 | 0.00 | 0.00 | 0.00 | 55 | 1013.1 |
| 20260507054645 | 7 | 293 | 3.2 | 4.8 | 0.00 | 0.00 | 0.00 | 56 | 1013.3 |
| 20260507054142 | 7 | 298 | 1.6 | 3.2 | 0.00 | 0.00 | 0.00 | 58 | 1013.2 |
| 20260507053640 | 7 | 302 | 1.6 | 1.6 | 0.00 | 0.00 | 0.00 | 58 | 1013.2 |
| 20260507053138 | 7 | 302 | 1.6 | 1.6 | 0.00 | 0.00 | 0.00 | 58 | 1013.2 |
| 20260507052636 | 7 | 302 | 1.6 | 1.6 | 0.00 | 0.00 | 0.00 | 56 | 1013.3 |
| 20260507052132 | 7 | 302 | 1.6 | 1.6 | 0.00 | 0.00 | 0.00 | 55 | 1013.3 |
| 20260507051630 | 7 | 302 | 1.6 | 1.6 | 0.00 | 0.00 | 0.00 | 55 | 1013.2 |
| 20260507051126 | 7 | 302 | 1.6 | 1.6 | 0.00 | 0.00 | 0.00 | 55 | 1013.3 |
| 20260507050623 | 7 | 302 | 1.6 | 3.2 | 0.00 | 0.00 | 0.00 | 56 | 1013.3 |
| 20260507050120 | 7 | 301 | 1.6 | 3.2 | 0.00 | 0.00 | 0.00 | 56 | 1013.5 |
| 20260507045617 | 8 | 303 | 1.6 | 3.2 | 0.00 | 0.00 | 0.00 | 55 | 1013.3 |
| 20260507045114 | 8 | 299 | 3.2 | 3.2 | 0.00 | 0.00 | 0.00 | 54 | 1013.3 |
| 20260507044610 | 8 | 303 | 1.6 | 3.2 | 0.00 | 0.00 | 0.00 | 54 | 1013.3 |
| 20260507044108 | 8 | 304 | 1.6 | 3.2 | 0.00 | 0.00 | 0.00 | 54 | 1013.3 |
| 20260507043603 | 8 | 303 | 1.6 | 1.6 | 0.00 | 0.00 | 0.00 | 57 | 1013.2 |
| 20260507043101 | 8 | 304 | 1.6 | 3.2 | 0.00 | 0.00 | 0.00 | 55 | 1013.4 |
| 20260507042556 | 8 | 304 | 1.6 | 1.6 | 0.00 | 0.00 | 0.00 | 54 | 1013.2 |
| 20260507042052 | 8 | 305 | 1.6 | 1.6 | 0.00 | 0.00 | 0.00 | 54 | 1013.4 |
| 20260507041549 | 8 | 305 | 1.6 | 1.6 | 0.00 | 0.00 | 0.00 | 55 | 1013.4 |
| 20260507041046 | 8 | 305 | 0.0 | 1.6 | 0.00 | 0.00 | 0.00 | 55 | 1013.2 |
| 20260507040543 | 8 | 305 | 0.0 | 0.0 | 0.00 | 0.00 | 0.00 | 57 | 1013.3 |
| 20260507040039 | 8 | 305 | 0.0 | 0.0 | 0.00 | 0.00 | 0.00 | 57 | 1013.4 |
| 20260507035535 | 8 | 305 | 0.0 | 0.0 | 0.00 | 0.00 | 0.00 | 57 | 1013.4 |
| 20260507035031 | 8 | 305 | 0.0 | 0.0 | 0.00 | 0.00 | 0.00 | 56 | 1013.4 |
| 20260507034528 | 8 | 305 | 0.0 | 0.0 | 0.00 | 0.00 | 0.00 | 54 | 1013.5 |
| 20260507034026 | 8 | 305 | 0.0 | 1.6 | 0.00 | 0.00 | 0.00 | 52 | 1013.4 |
| 20260507033524 | 8 | 305 | 0.0 | 1.6 | 0.00 | 0.00 | 0.00 | 54 | 1013.4 |
| 20260507033021 | 8 | 305 | 0.0 | 0.0 | 0.00 | 0.00 | 0.00 | 54 | 1013.6 |
| 20260507032518 | 8 | 305 | 0.0 | 0.0 | 0.00 | 0.00 | 0.00 | 53 | 1013.4 |
| 20260507032014 | 8 | 304 | 0.0 | 0.0 | 0.00 | 0.00 | 0.00 | 50 | 1013.5 |
| 20260507031510 | 8 | 305 | 0.0 | 0.0 | 0.00 | 0.00 | 0.00 | 50 | 1013.5 |
| 20260507031008 | 8 | 306 | 0.0 | 0.0 | 0.00 | 0.00 | 0.00 | 50 | 1013.5 |
| 20260507030504 | 8 | 306 | 0.0 | 1.6 | 0.00 | 0.00 | 0.00 | 49 | 1013.5 |
| 20260507030002 | 8 | 306 | 0.0 | 0.0 | 0.00 | 0.00 | 0.00 | 50 | 1013.6 |
| 20260507025459 | 8 | 306 | 1.6 | 1.6 | 0.00 | 0.00 | 0.00 | 48 | 1013.6 |
| 20260507024956 | 8 | 306 | 1.6 | 3.2 | 0.00 | 0.00 | 0.00 | 50 | 1013.7 |
| 20260507024454 | 8 | 306 | 0.0 | 0.0 | 0.00 | 0.00 | 0.00 | 47 | 1013.6 |
| 20260507023949 | 9 | 306 | 0.0 | 0.0 | 0.00 | 0.00 | 0.00 | 48 | 1013.6 |
| 20260507023446 | 9 | 295 | 1.6 | 3.2 | 0.00 | 0.00 | 0.00 | 48 | 1013.6 |
| 20260507022944 | 9 | 306 | 0.0 | 1.6 | 0.00 | 0.00 | 0.00 | 47 | 1013.5 |
| 20260507022441 | 9 | 305 | 1.6 | 3.2 | 0.00 | 0.00 | 0.00 | 46 | 1013.6 |
| 20260507021936 | 9 | 275 | 4.8 | 4.8 | 0.00 | 0.00 | 0.00 | 44 | 1013.4 |
| 20260507021431 | 9 | 295 | 1.6 | 3.2 | 0.00 | 0.00 | 0.00 | 44 | 1013.5 |
| 20260507020930 | 9 | 292 | 1.6 | 4.8 | 0.00 | 0.00 | 0.00 | 44 | 1013.4 |
| 20260507020426 | 9 | 292 | 1.6 | 3.2 | 0.00 | 0.00 | 0.00 | 45 | 1013.4 |
| 20260507015923 | 9 | 276 | 3.2 | 3.2 | 0.00 | 0.00 | 0.00 | 44 | 1013.3 |
| 20260507015421 | 10 | 296 | 1.6 | 4.8 | 0.00 | 0.00 | 0.00 | 44 | 1013.5 |
| 20260507014918 | 10 | 286 | 3.2 | 4.8 | 0.00 | 0.00 | 0.00 | 43 | 1013.3 |
| 20260507014414 | 10 | 271 | 3.2 | 4.8 | 0.00 | 0.00 | 0.00 | 44 | 1013.3 |
| 20260507013910 | 10 | 266 | 1.6 | 4.8 | 0.00 | 0.00 | 0.00 | 43 | 1013.2 |
| 20260507013408 | 10 | 287 | 4.8 | 6.4 | 0.00 | 0.00 | 0.00 | 43 | 1013.3 |
| 20260507012905 | 10 | 263 | 4.8 | 4.8 | 0.00 | 0.00 | 0.00 | 43 | 1013.2 |
| 20260507012401 | 10 | 290 | 4.8 | 11.3 | 0.00 | 0.00 | 0.00 | 43 | 1013.1 |
| 20260507011859 | 10 | 279 | 4.8 | 6.4 | 0.00 | 0.00 | 0.00 | 43 | 1013.1 |
| 20260507011355 | 10 | 291 | 3.2 | 6.4 | 0.00 | 0.00 | 0.00 | 44 | 1013.0 |
| 20260507010855 | 10 | 281 | 4.8 | 4.8 | 0.00 | 0.00 | 0.00 | 43 | 1013.2 |
| 20260507010351 | 10 | 268 | 8.0 | 11.3 | 0.00 | 0.00 | 0.00 | 42 | 1013.3 |
| 20260507005848 | 10 | 280 | 8.0 | 11.3 | 0.00 | 0.00 | 0.00 | 43 | 1013.2 |
| 20260507005345 | 10 | 260 | 4.8 | 6.4 | 0.00 | 0.00 | 0.00 | 44 | 1013.3 |
| 20260507004842 | 10 | 292 | 3.2 | 4.8 | 0.00 | 0.00 | 0.00 | 44 | 1013.1 |
| 20260507004339 | 10 | 291 | 3.2 | 3.2 | 0.00 | 0.00 | 0.00 | 46 | 1013.1 |
| 20260507003836 | 10 | 279 | 4.8 | 6.4 | 0.00 | 0.00 | 0.00 | 45 | 1013.0 |
| 20260507003331 | 10 | 297 | 1.6 | 3.2 | 0.00 | 0.00 | 0.00 | 45 | 1013.0 |
| 20260507002826 | 10 | 283 | 3.2 | 6.4 | 0.00 | 0.00 | 0.00 | 45 | 1013.0 |
| 20260507002323 | 10 | 310 | 1.6 | 3.2 | 0.00 | 0.00 | 0.00 | 46 | 1013.0 |
| 20260507001821 | 10 | 320 | 1.6 | 1.6 | 0.00 | 0.00 | 0.00 | 47 | 1012.9 |
| 20260507001317 | 10 | 296 | 1.6 | 4.8 | 0.00 | 0.00 | 0.00 | 45 | 1012.8 |
| 20260507000814 | 10 | 296 | 3.2 | 4.8 | 0.00 | 0.00 | 0.00 | 44 | 1013.0 |
| 20260507000309 | 10 | 301 | 3.2 | 3.2 | 0.00 | 0.00 | 0.00 | 45 | 1013.1 |
| 20260506235806 | 10 | 296 | 1.6 | 3.2 | 0.00 | 0.00 | 0.00 | 45 | 1012.9 |
| 20260506235306 | 10 | 282 | 3.2 | 3.2 | 0.00 | 0.00 | 0.00 | 44 | 1012.9 |
| 20260506234759 | 10 | 307 | 1.6 | 3.2 | 0.00 | 0.00 | 0.00 | 45 | 1012.8 |
| 20260506234256 | 10 | 295 | 3.2 | 4.8 | 0.00 | 0.00 | 0.00 | 43 | 1012.7 |
| 20260506233754 | 10 | 290 | 3.2 | 6.4 | 0.00 | 0.00 | 0.00 | 43 | 1012.8 |
| 20260506233250 | 10 | 300 | 4.8 | 6.4 | 0.00 | 0.00 | 0.00 | 44 | 1012.8 |
| 20260506232747 | 10 | 307 | 3.2 | 4.8 | 0.00 | 0.00 | 0.00 | 43 | 1012.7 |
| 20260506232248 | 10 | 283 | 4.8 | 4.8 | 0.00 | 0.00 | 0.00 | 44 | 1012.7 |
| 20260506231745 | 10 | 280 | 4.8 | 9.7 | 0.00 | 0.00 | 0.00 | 43 | 1012.8 |
| 20260506231244 | 10 | 318 | 3.2 | 4.8 | 0.00 | 0.00 | 0.00 | 46 | 1012.7 |
| 20260506230740 | 10 | 314 | 3.2 | 4.8 | 0.00 | 0.00 | 0.00 | 44 | 1012.7 |
| 20260506230237 | 10 | 317 | 3.2 | 6.4 | 0.00 | 0.00 | 0.00 | 44 | 1012.8 |
| 20260506225733 | 10 | 318 | 3.2 | 4.8 | 0.00 | 0.00 | 0.00 | 46 | 1012.7 |
| 20260506225231 | 10 | 282 | 4.8 | 4.8 | 0.00 | 0.00 | 0.00 | 44 | 1012.7 |
| 20260506224727 | 10 | 278 | 3.2 | 4.8 | 0.00 | 0.00 | 0.00 | 45 | 1012.7 |
| 20260506224224 | 10 | 304 | 6.4 | 11.3 | 0.00 | 0.00 | 0.00 | 43 | 1012.7 |
| 20260506223720 | 11 | 279 | 6.4 | 9.7 | 0.00 | 0.00 | 0.00 | 44 | 1012.8 |
| 20260506223216 | 11 | 308 | 8.0 | 11.3 | 0.00 | 0.00 | 0.00 | 44 | 1012.8 |
| 20260506222713 | 11 | 264 | 9.7 | 14.5 | 0.00 | 0.00 | 0.00 | 42 | 1012.8 |
| 20260506222209 | 11 | 275 | 12.9 | 12.9 | 0.00 | 0.00 | 0.00 | 43 | 1012.9 |
| 20260506221707 | 10 | 268 | 8.0 | 11.3 | 0.00 | 0.00 | 0.00 | 44 | 1013.0 |
| 20260506221205 | 11 | 275 | 14.5 | 16.1 | 0.00 | 0.00 | 0.00 | 42 | 1012.8 |
| 20260506220701 | 11 | 299 | 9.7 | 12.9 | 0.00 | 0.00 | 0.00 | 43 | 1012.9 |
| 20260506220156 | 10 | 308 | 3.2 | 6.4 | 0.00 | 0.00 | 0.00 | 46 | 1013.0 |
| 20260506215653 | 10 | 272 | 9.7 | 12.9 | 0.00 | 0.00 | 0.00 | 43 | 1013.0 |
| 20260506215148 | 10 | 335 | 1.6 | 6.4 | 0.00 | 0.00 | 0.00 | 45 | 1012.8 |
| 20260506214646 | 10 | 337 | 1.6 | 6.4 | 0.00 | 0.00 | 0.00 | 44 | 1012.7 |
| 20260506214143 | 10 | 285 | 3.2 | 12.9 | 0.00 | 0.00 | 0.00 | 44 | 1012.7 |
| 20260506213641 | 10 | 277 | 4.8 | 4.8 | 0.00 | 0.00 | 0.00 | 45 | 1012.8 |
| 20260506213138 | 10 | 282 | 9.7 | 14.5 | 0.00 | 0.00 | 0.00 | 43 | 1012.9 |
| 20260506212636 | 10 | 300 | 8.0 | 11.3 | 0.00 | 0.00 | 0.00 | 43 | 1012.7 |
| 20260506212130 | 10 | 304 | 6.4 | 9.7 | 0.00 | 0.00 | 0.00 | 44 | 1012.6 |
| 20260506211626 | 10 | 286 | 4.8 | 6.4 | 0.00 | 0.00 | 0.00 | 44 | 1013.0 |
| 20260506211123 | 10 | 309 | 6.4 | 6.4 | 0.00 | 0.00 | 0.00 | 45 | 1012.8 |
| 20260506210620 | 10 | 298 | 4.8 | 6.4 | 0.00 | 0.00 | 0.00 | 45 | 1012.8 |
| 20260506210116 | 10 | 319 | 1.6 | 4.8 | 0.00 | 0.00 | 0.00 | 46 | 1012.7 |
| 20260506205613 | 10 | 312 | 3.2 | 6.4 | 0.00 | 0.00 | 0.00 | 44 | 1012.8 |
| 20260506205108 | 10 | 299 | 3.2 | 6.4 | 0.00 | 0.00 | 0.00 | 43 | 1013.0 |
| 20260506204607 | 10 | 278 | 6.4 | 6.4 | 0.00 | 0.00 | 0.00 | 45 | 1012.8 |
| 20260506204103 | 10 | 293 | 3.2 | 6.4 | 0.00 | 0.00 | 0.00 | 44 | 1012.8 |
| 20260506203602 | 10 | 306 | 3.2 | 6.4 | 0.00 | 0.00 | 0.00 | 45 | 1012.9 |
| 20260506203058 | 10 | 285 | 6.4 | 9.7 | 0.00 | 0.00 | 0.00 | 44 | 1012.9 |
| 20260506202555 | 10 | 288 | 6.4 | 9.7 | 0.00 | 0.00 | 0.00 | 44 | 1013.1 |
| 20260506202052 | 10 | 305 | 4.8 | 4.8 | 0.00 | 0.00 | 0.00 | 44 | 1012.9 |
| 20260506201549 | 10 | 305 | 8.0 | 9.7 | 0.00 | 0.00 | 0.00 | 45 | 1012.5 |
| 20260506201046 | 10 | 295 | 4.8 | 9.7 | 0.00 | 0.00 | 0.00 | 45 | 1012.7 |
| 20260506200542 | 10 | 260 | 3.2 | 9.7 | 0.00 | 0.00 | 0.00 | 45 | 1012.9 |
| 20260506200039 | 10 | 301 | 9.7 | 17.7 | 0.00 | 0.00 | 0.00 | 44 | 1013.2 |
| 20260506195536 | 10 | 287 | 6.4 | 6.4 | 0.00 | 0.00 | 0.00 | 45 | 1013.0 |
| 20260506195032 | 10 | 283 | 9.7 | 12.9 | 0.00 | 0.00 | 0.00 | 44 | 1012.9 |
| 20260506194530 | 10 | 268 | 8.0 | 11.3 | 0.00 | 0.00 | 0.00 | 45 | 1012.9 |
| 20260506194026 | 10 | 291 | 6.4 | 9.7 | 0.00 | 0.00 | 0.00 | 46 | 1013.0 |
| 20260506193523 | 10 | 351 | 12.9 | 14.5 | 0.00 | 0.00 | 0.00 | 45 | 1012.8 |
| 20260506193020 | 10 | 319 | 4.8 | 6.4 | 0.00 | 0.00 | 0.00 | 46 | 1012.9 |
| 20260506192517 | 10 | 27 | 1.6 | 4.8 | 0.00 | 0.00 | 0.00 | 45 | 1013.2 |
| 20260506192013 | 10 | 67 | 3.2 | 11.3 | 0.00 | 0.00 | 0.00 | 46 | 1013.0 |
| 20260506191510 | 10 | 354 | 4.8 | 6.4 | 0.00 | 0.00 | 0.00 | 46 | 1013.5 |
| 20260506191006 | 10 | 359 | 4.8 | 6.4 | 0.00 | 0.00 | 0.00 | 49 | 1013.3 |
| 20260506190503 | 10 | 313 | 8.0 | 11.3 | 0.00 | 0.00 | 0.00 | 45 | 1013.4 |
| 20260506190000 | 10 | 304 | 9.7 | 14.5 | 0.00 | 0.00 | 0.00 | 44 | 1013.1 |
| 20260506185458 | 10 | 327 | 6.4 | 6.4 | 0.00 | 0.00 | 0.00 | 49 | 1013.1 |
| 20260506184954 | 10 | 14 | 6.4 | 11.3 | 0.00 | 0.00 | 0.00 | 46 | 1013.2 |
| 20260506184451 | 10 | 1 | 6.4 | 9.7 | 0.00 | 0.00 | 0.00 | 46 | 1013.0 |
| 20260506183948 | 9 | 354 | 1.6 | 4.8 | 0.00 | 0.00 | 0.00 | 47 | 1013.0 |
| 20260506183444 | 9 | 295 | 6.4 | 6.4 | 0.00 | 0.00 | 0.00 | 48 | 1013.1 |
| 20260506182941 | 9 | 8 | 4.8 | 9.7 | 0.00 | 0.00 | 0.00 | 50 | 1013.0 |
| 20260506182438 | 9 | 283 | 9.7 | 14.5 | 0.00 | 0.00 | 0.00 | 49 | 1013.0 |
| 20260506181935 | 9 | 327 | 4.8 | 9.7 | 0.00 | 0.00 | 0.00 | 48 | 1013.2 |
| 20260506181433 | 10 | 334 | 3.2 | 6.4 | 0.00 | 0.00 | 0.00 | 47 | 1013.1 |
| 20260506180930 | 9 | 319 | 4.8 | 4.8 | 0.00 | 0.00 | 0.00 | 50 | 1012.9 |
| 20260506180426 | 9 | 341 | 8.0 | 11.3 | 0.00 | 0.00 | 0.00 | 48 | 1013.3 |
| 20260506175923 | 9 | 295 | 8.0 | 9.7 | 0.00 | 0.00 | 0.00 | 48 | 1013.2 |
| 20260506175420 | 9 | 355 | 1.6 | 6.4 | 0.00 | 0.00 | 0.00 | 48 | 1013.2 |
| 20260506174917 | 10 | 274 | 9.7 | 14.5 | 0.00 | 0.00 | 0.00 | 46 | 1013.3 |
| 20260506174414 | 10 | 357 | 4.8 | 9.7 | 0.00 | 0.00 | 0.00 | 48 | 1013.3 |
| 20260506173911 | 9 | 38 | 8.0 | 12.9 | 0.00 | 0.00 | 0.00 | 46 | 1013.5 |
| 20260506173408 | 9 | 353 | 3.2 | 9.7 | 0.00 | 0.00 | 0.00 | 48 | 1013.5 |
| 20260506172905 | 10 | 288 | 9.7 | 16.1 | 0.00 | 0.00 | 0.00 | 48 | 1013.7 |
| 20260506172402 | 10 | 10 | 0.0 | 3.2 | 0.00 | 0.00 | 0.00 | 50 | 1013.8 |